Radiation Dose at Monitoring Post of Fukushima Daini Nuclear Power Station
Date,Time,MP-1(microSv/h),MP-2(microSv/h),MP-3(microSv/h),MP-4(microSv/h),MP-5(microSv/h),MP-6(microSv/h),MP-7(microSv/h),Wind Direction,Wind Velocity(m/s),Rain
2015/05/13,00:00,0.536,0.327,0.577,0.530,0.469,0.251,0.224,south,13.3,Yes
2015/05/13,00:10,0.539,0.328,0.576,0.533,0.467,0.251,0.224,south,15.2,Yes
2015/05/13,00:20,0.533,0.329,0.576,0.531,0.469,0.251,0.225,south,14.2,Yes
2015/05/13,00:30,0.536,0.325,0.569,0.530,0.467,0.249,0.223,south,13.1,Yes
2015/05/13,00:40,0.528,0.324,0.573,0.521,0.466,0.248,0.224,south,10.2,Yes
2015/05/13,00:50,0.531,0.325,0.567,0.525,0.466,0.247,0.222,south,9.9,Yes
2015/05/13,01:00,0.528,0.324,0.571,0.524,0.466,0.248,0.224,south,11.9,Yes
2015/05/13,01:10,0.534,0.328,0.569,0.532,0.473,0.249,0.223,south-southeast,11.8,Yes
2015/05/13,01:20,0.532,0.325,0.575,0.532,0.468,0.250,0.223,south,10.7,Yes
2015/05/13,01:30,0.535,0.328,0.574,0.535,0.474,0.248,0.224,south,11.0,No
2015/05/13,01:40,0.535,0.326,0.575,0.532,0.468,0.249,0.224,south-southwest,10.5,No
2015/05/13,01:50,0.532,0.328,0.574,0.535,0.473,0.248,0.223,south-southwest,10.4,No
2015/05/13,02:00,0.536,0.325,0.575,0.534,0.468,0.247,0.223,south,8.8,No
2015/05/13,02:10,0.531,0.326,0.572,0.534,0.472,0.246,0.220,southwest,7.0,Yes
2015/05/13,02:20,0.535,0.326,0.569,0.533,0.466,0.247,0.222,west,6.1,No
2015/05/13,02:30,0.531,0.326,0.575,0.529,0.470,0.246,0.221,west,7.6,Yes
2015/05/13,02:40,0.537,0.325,0.571,0.535,0.469,0.246,0.221,west-northwest,8.8,No
2015/05/13,02:50,0.531,0.325,0.574,0.530,0.470,0.245,0.220,west-northwest,11.3,No
2015/05/13,03:00,0.539,0.327,0.572,0.535,0.469,0.246,0.222,west-northwest,10.7,No
2015/05/13,03:10,0.534,0.325,0.576,0.531,0.472,0.246,0.220,west-northwest,9.4,No
2015/05/13,03:20,0.538,0.326,0.570,0.535,0.468,0.246,0.220,west-northwest,10.2,No
2015/05/13,03:30,0.538,0.324,0.575,0.530,0.471,0.248,0.222,northwest,8.3,No
2015/05/13,03:40,0.537,0.326,0.570,0.533,0.470,0.246,0.220,northwest,8.0,No
2015/05/13,03:50,0.537,0.325,0.576,0.531,0.471,0.247,0.219,north-northwest,4.4,No
2015/05/13,04:00,0.535,0.326,0.571,0.535,0.470,0.246,0.220,northwest,4.3,No
2015/05/13,04:10,0.539,0.325,0.575,0.531,0.470,0.247,0.220,north-northwest,5.8,No
2015/05/13,04:20,0.536,0.327,0.573,0.536,0.471,0.246,0.220,northwest,3.6,No
2015/05/13,04:30,0.541,0.325,0.575,0.531,0.469,0.247,0.220,north-northwest,4.4,No
2015/05/13,04:40,0.537,0.327,0.572,0.536,0.473,0.246,0.220,north-northwest,3.4,Yes
2015/05/13,04:50,0.542,0.325,0.576,0.531,0.467,0.248,0.220,north-northwest,4.4,No
2015/05/13,05:00,0.536,0.326,0.574,0.535,0.474,0.247,0.219,north,4.2,No
2015/05/13,05:10,0.542,0.327,0.573,0.530,0.470,0.247,0.220,north,3.4,No
2015/05/13,05:20,0.538,0.325,0.575,0.536,0.473,0.246,0.219,north,2.2,No
2015/05/13,05:30,0.538,0.326,0.572,0.532,0.468,0.248,0.220,north,2.9,No
2015/05/13,05:40,0.540,0.325,0.577,0.535,0.472,0.247,0.218,north-northwest,4.7,No
2015/05/13,05:50,0.539,0.328,0.574,0.532,0.467,0.247,0.220,northwest,6.3,No
2015/05/13,06:00,0.543,0.326,0.577,0.535,0.475,0.246,0.221,northwest,5.7,No
2015/05/13,06:10,0.537,0.328,0.571,0.533,0.471,0.248,0.220,northwest,6.3,No
2015/05/13,06:20,0.542,0.324,0.577,0.532,0.472,0.246,0.219,west-northwest,3.9,No
2015/05/13,06:30,0.539,0.328,0.572,0.533,0.471,0.247,0.222,northwest,6.1,No
2015/05/13,06:40,0.543,0.325,0.577,0.531,0.469,0.247,0.220,northwest,6.9,No
2015/05/13,06:50,0.540,0.327,0.572,0.536,0.473,0.248,0.221,west-northwest,10.7,No
2015/05/13,07:00,0.542,0.326,0.575,0.530,0.469,0.247,0.222,west-northwest,7.9,No
2015/05/13,07:10,0.541,0.326,0.576,0.539,0.475,0.248,0.219,northwest,9.8,No
2015/05/13,07:20,0.539,0.329,0.569,0.532,0.469,0.249,0.221,northwest,7.4,No
2015/05/13,07:30,0.544,0.325,0.578,0.532,0.474,0.248,0.220,northwest,6.2,No
2015/05/13,07:40,0.538,0.324,0.574,0.538,0.471,0.247,0.219,northwest,4.5,No
2015/05/13,07:50,0.543,0.328,0.568,0.531,0.474,0.248,0.220,west-northwest,4.9,No
2015/05/13,08:00,0.539,0.327,0.577,0.527,0.473,0.249,0.222,north-northwest,2.8,No
2015/05/13,08:10,0.538,0.324,0.577,0.534,0.467,0.248,0.222,north,4.6,No
2015/05/13,08:20,0.543,0.325,0.574,0.531,0.474,0.248,0.220,northwest,3.9,No
2015/05/13,08:30,0.541,0.327,0.582,0.531,0.473,0.249,0.220,north,4.9,No
2015/05/13,08:40,0.536,0.328,0.576,0.528,0.469,0.249,0.220,north,5.1,No
2015/05/13,08:50,0.545,0.326,0.578,0.535,0.475,0.248,0.223,northwest,4.4,No
2015/05/13,09:00,0.546,0.324,0.579,0.537,0.473,0.249,0.221,west-northwest,5.5,No
2015/05/13,09:10,0.540,0.329,0.575,0.536,0.471,0.249,0.221,northwest,2.7,No
2015/05/13,09:20,0.539,0.329,0.580,0.532,0.468,0.250,0.219,northwest,2.5,No
2015/05/13,09:30,0.535,0.327,0.578,0.532,0.468,0.250,0.221,west,2.8,No
2015/05/13,09:40,0.543,0.327,0.573,0.531,0.474,0.248,0.221,west,7.1,No
2015/05/13,09:50,0.546,0.325,0.581,0.531,0.473,0.249,0.221,west,6.4,No
2015/05/13,10:00,0.544,0.325,0.578,0.533,0.471,0.250,0.221,west,8.2,No
2015/05/13,10:10,0.541,0.326,0.574,0.533,0.468,0.248,0.221,west-southwest,6.4,No
2015/05/13,10:20,0.539,0.325,0.572,0.534,0.469,0.249,0.220,south-southwest,2.0,No
2015/05/13,10:30,0.538,0.326,0.573,0.533,0.468,0.251,0.220,west-northwest,2.2,No
2015/05/13,10:40,0.538,0.325,0.570,0.535,0.469,0.251,0.221,southeast,3.7,No
2015/05/13,10:50,0.543,0.328,0.573,0.536,0.473,0.252,0.225,southeast,4.3,No
2015/05/13,11:00,0.548,0.332,0.572,0.533,0.478,0.251,0.224,southeast,5.5,No
2015/05/13,11:10,0.546,0.330,0.580,0.537,0.478,0.249,0.221,southeast,5.3,No
2015/05/13,11:20,0.542,0.328,0.582,0.545,0.475,0.251,0.222,southeast,5.8,No
2015/05/13,11:30,0.539,0.330,0.580,0.540,0.473,0.252,0.224,south-southeast,5.1,No
2015/05/13,11:40,0.540,0.329,0.578,0.538,0.478,0.251,0.225,south-southeast,5.1,No
2015/05/13,11:50,0.547,0.329,0.575,0.536,0.475,0.249,0.223,south-southeast,5.3,No
2015/05/13,12:00,0.547,0.328,0.575,0.538,0.474,0.251,0.223,south,5.5,No
2015/05/13,12:10,0.546,0.328,0.582,0.544,0.473,0.252,0.225,south-southeast,4.7,No
2015/05/13,12:20,0.543,0.331,0.582,0.540,0.470,0.252,0.224,south,5.5,No
2015/05/13,12:30,0.541,0.328,0.581,0.538,0.475,0.250,0.223,south,6.1,No
2015/05/13,12:40,0.548,0.328,0.578,0.536,0.479,0.250,0.222,south-southeast,6.4,No
2015/05/13,12:50,0.548,0.326,0.575,0.534,0.475,0.251,0.225,south,6.6,No
2015/05/13,13:00,0.545,0.330,0.575,0.535,0.473,0.252,0.224,south,6.9,No
2015/05/13,13:10,0.544,0.332,0.575,0.543,0.471,0.252,0.224,south-southeast,6.0,No
2015/05/13,13:20,0.551,0.329,0.575,0.541,0.473,0.251,0.224,south,5.9,No
2015/05/13,13:30,0.547,0.329,0.576,0.541,0.471,0.250,0.226,south,6.2,No
2015/05/13,13:40,0.541,0.326,0.580,0.539,0.475,0.252,0.225,south,6.3,No
2015/05/13,13:50,0.544,0.326,0.583,0.536,0.480,0.251,0.224,south,6.4,No
2015/05/13,14:00,0.551,0.331,0.581,0.538,0.477,0.253,0.223,south,7.1,No
2015/05/13,14:10,0.549,0.333,0.581,0.544,0.475,0.253,0.225,south,6.4,No
2015/05/13,14:20,0.543,0.331,0.579,0.544,0.473,0.251,0.225,south,8.1,No
2015/05/13,14:30,0.542,0.328,0.579,0.541,0.472,0.252,0.223,south,8.6,No
2015/05/13,14:40,0.541,0.328,0.578,0.540,0.471,0.252,0.225,south-southeast,8.7,No
2015/05/13,14:50,0.546,0.326,0.577,0.537,0.480,0.252,0.225,south,9.8,No
2015/05/13,15:00,0.553,0.332,0.586,0.548,0.477,0.252,0.224,south,10.7,No
2015/05/13,15:10,0.546,0.330,0.587,0.544,0.478,0.252,0.227,south,9.7,No
2015/05/13,15:20,0.551,0.329,0.582,0.544,0.484,0.252,0.225,south,10.8,No
2015/05/13,15:30,0.552,0.333,0.588,0.547,0.477,0.251,0.226,south,9.8,No
2015/05/13,15:40,0.544,0.331,0.582,0.543,0.479,0.252,0.226,south,10.4,No
2015/05/13,15:50,0.552,0.332,0.585,0.549,0.482,0.250,0.226,south,9.8,No
2015/05/13,16:00,0.550,0.333,0.587,0.542,0.474,0.253,0.225,south,10.2,No
2015/05/13,16:10,0.544,0.329,0.580,0.545,0.480,0.251,0.225,south,9.5,No
2015/05/13,16:20,0.551,0.332,0.588,0.545,0.478,0.251,0.226,south,9.8,No
2015/05/13,16:30,0.547,0.329,0.584,0.540,0.473,0.252,0.225,south,9.9,No
2015/05/13,16:40,0.544,0.331,0.582,0.545,0.472,0.253,0.227,south,10.4,No
2015/05/13,16:50,0.549,0.331,0.587,0.541,0.480,0.251,0.225,south,11.9,No
2015/05/13,17:00,0.544,0.329,0.580,0.546,0.478,0.252,0.226,south,12.9,No
2015/05/13,17:10,0.549,0.333,0.586,0.544,0.473,0.252,0.225,south,12.3,No
2015/05/13,17:20,0.548,0.330,0.584,0.542,0.480,0.253,0.226,south,11.2,No
2015/05/13,17:30,0.543,0.333,0.584,0.545,0.476,0.253,0.225,south-southwest,10.1,No
2015/05/13,17:40,0.551,0.329,0.587,0.541,0.477,0.254,0.227,south,8.6,No
2015/05/13,17:50,0.546,0.332,0.580,0.546,0.481,0.253,0.226,south,9.2,No
2015/05/13,18:00,0.548,0.331,0.587,0.541,0.475,0.253,0.227,south,8.3,No
2015/05/13,18:10,0.550,0.330,0.582,0.546,0.481,0.252,0.225,south,8.9,No
2015/05/13,18:20,0.545,0.332,0.588,0.543,0.476,0.252,0.227,south,8.7,No
2015/05/13,18:30,0.552,0.329,0.583,0.543,0.480,0.254,0.225,south,7.8,No
2015/05/13,18:40,0.546,0.332,0.583,0.543,0.478,0.252,0.227,south-southwest,8.1,No
2015/05/13,18:50,0.550,0.331,0.586,0.543,0.478,0.255,0.226,south-southwest,8.4,No
2015/05/13,19:00,0.545,0.331,0.582,0.546,0.477,0.253,0.227,south-southwest,9.6,No
2015/05/13,19:10,0.550,0.330,0.588,0.543,0.478,0.253,0.225,south-southwest,9.3,No
2015/05/13,19:20,0.547,0.332,0.582,0.545,0.480,0.253,0.226,south-southwest,9.5,No
2015/05/13,19:30,0.549,0.330,0.587,0.542,0.476,0.252,0.225,south-southwest,8.0,No
2015/05/13,19:40,0.548,0.331,0.583,0.548,0.478,0.252,0.227,south-southwest,7.2,No
2015/05/13,19:50,0.548,0.331,0.587,0.541,0.478,0.254,0.225,south-southwest,6.0,No
2015/05/13,20:00,0.547,0.332,0.585,0.548,0.478,0.252,0.226,south-southwest,5.8,No
2015/05/13,20:10,0.548,0.331,0.585,0.541,0.477,0.253,0.226,south-southwest,6.1,No
2015/05/13,20:20,0.550,0.330,0.585,0.546,0.478,0.252,0.227,south-southwest,7.5,No
2015/05/13,20:30,0.547,0.331,0.586,0.542,0.477,0.252,0.226,south-southwest,9.8,No
2015/05/13,20:40,0.551,0.331,0.587,0.547,0.479,0.253,0.225,south-southwest,9.5,No
2015/05/13,20:50,0.547,0.332,0.584,0.543,0.476,0.254,0.226,south-southwest,9.3,No
2015/05/13,21:00,0.551,0.329,0.586,0.547,0.478,0.252,0.227,south-southwest,8.8,No
2015/05/13,21:10,0.546,0.331,0.585,0.541,0.477,0.253,0.226,south-southwest,8.6,No
2015/05/13,21:20,0.552,0.330,0.587,0.547,0.478,0.252,0.226,south-southwest,8.9,No
2015/05/13,21:30,0.547,0.331,0.582,0.542,0.476,0.254,0.226,south-southwest,8.1,No
2015/05/13,21:40,0.549,0.330,0.589,0.546,0.477,0.253,0.227,south-southwest,9.5,No
2015/05/13,21:50,0.547,0.331,0.581,0.543,0.478,0.254,0.227,south-southwest,8.3,No
2015/05/13,22:00,0.549,0.330,0.588,0.544,0.478,0.252,0.225,south-southwest,8.0,No
2015/05/13,22:10,0.546,0.331,0.581,0.543,0.476,0.253,0.226,south-southwest,8.3,No
2015/05/13,22:20,0.552,0.332,0.588,0.545,0.477,0.253,0.226,south-southwest,8.4,No
2015/05/13,22:30,0.546,0.330,0.584,0.543,0.477,0.254,0.227,south-southwest,7.3,No
2015/05/13,22:40,0.550,0.332,0.588,0.546,0.477,0.252,0.227,south-southwest,5.9,No
2015/05/13,22:50,0.545,0.330,0.584,0.545,0.475,0.253,0.226,south-southwest,5.3,No
2015/05/13,23:00,0.552,0.333,0.588,0.545,0.478,0.254,0.227,south-southwest,6.4,No
2015/05/13,23:10,0.547,0.330,0.584,0.543,0.478,0.254,0.227,west-southwest,7.5,No
2015/05/13,23:20,0.551,0.332,0.587,0.545,0.478,0.255,0.226,west-southwest,7.0,No
2015/05/13,23:30,0.546,0.330,0.585,0.543,0.479,0.253,0.227,west-southwest,6.4,No
2015/05/13,23:40,0.552,0.331,0.584,0.547,0.477,0.253,0.226,west-southwest,5.9,No
2015/05/13,23:50,0.547,0.331,0.584,0.544,0.479,0.253,0.227,west-southwest,6.0,No
